Skip Page Navigation
NASA JPL Caltech
NASA Logo - Jet Propulsion Laboratory + View the NASA Portal
+ Center for Near-Earth Object Studies
JPL Home Earth Solar System Stars & Galaxies Technology
JPL Solar System Dynamics
BODIES ORBITS EPHEMERIDES TOOLS PHYSICAL DATA DISCOVERY FAQ SITE MAP
IMPORTANT: The SSD Announcement email list is now available. Major changes are coming in the near future, including possible hostname and/or URL changes. To be notified of such changes, subscribe to this email list.

Please visit this page for more details.


JPL Small-Body Database Browser
Search: [ help ]  
324818 (2007 HU80)
Classification: Main-belt Asteroid          SPK-ID: 2324818
Ephemeris | Orbit Diagram | Orbital Elements | Mission Design | Physical Parameters | Discovery Circumstances ]

[ show orbit diagram ]
Orbital Elements at Epoch 2459000.5 (2020-May-31.0) TDB
Reference: JPL 9 (heliocentric ecliptic J2000)
 Element Value Uncertainty (1-sigma)   Units 
e .05967733981506394 7.5369e-08  
a 3.032392385961452 4.4543e-08 au
q 2.851427275091818 2.5133e-07 au
i 4.697000556264226 6.885e-06 deg
node 207.13588275 7.8598e-05 deg
peri 180.2105363791545 9.6925e-05 deg
M 357.4202013222525 5.9992e-05 deg
tp 2459014.321648308962
(2020-Jun-13.82164831)
0.00032154 TDB
period 1928.752593815167
5.28
4.2498e-05
1.164e-07
d
yr
n .1866491333073996 4.1126e-09 deg/d
Q 3.213357496831086 4.7201e-08 au
  Orbit Determination Parameters
   # obs. used (total)      144  
   data-arc span      5445 days (14.91 yr)  
   first obs. used      2004-10-09  
   last obs. used      2019-09-06  
   planetary ephem.      DE431  
   SB-pert. ephem.      SB431-N16  
   condition code      0  
   norm. resid. RMS      .57  
   source      ORB  
   producer      Otto Matic  
   solution date      2019-Sep-24 06:13:31  

Additional Information
 Earth MOID = 1.85562 au 
 Jupiter MOID = 2.10278 au 
 T_jup = 3.235 
[ show covariance matrix ]

Ephemeris | Orbit Diagram | Orbital Elements | Mission Design | Physical Parameters | Discovery Circumstances ]

Physical Parameter Table
Parameter Symbol Value Units Sigma Reference Notes
absolute magnitude H 16.5   n/a MPO450272  

324818 (2007 HU80)          Discovered 2007-Apr-25 by Mt. Lemmon Survey at Mount Lemmon
Reference: 20120406/Numbers.arcLast Updated: 2012-04-09

Alternate Designations
 2007 HU80 = 2009 UX114 
Ephemeris | Orbit Diagram | Orbital Elements | Mission Design | Physical Parameters | Discovery Circumstances ]
ABOUT SSD CREDITS/AWARDS PRIVACY/COPYRIGHT GLOSSARY LINKS
FirstGov 2020-Jun-07 06:48 UT
(server date/time)  
NASA Home Page
Site Manager:   Ryan S. Park
Webmaster  Alan B. Chamberlin